Location: Unspecified
(0.0000°N, 0.0000°E)
Time: 16:26:44
(UTC+00:00)

Transit 2A Rocket - All Passes

Search period start: 19 October 2020 00:00
Search period end: 29 October 2020 00:00
Orbit: 586 x 917 km, 66.7° (Epoch: 18 October)

Date Brightness Start Highest point End Pass type
(mag) Time Alt. Az. Time Alt. Az. Time Alt. Az.
19 Oct - 10:08:35 10° SSW 10:14:21 78° ESE 10:20:25 10° NNE daylight
19 Oct - 22:40:58 10° NW 22:44:58 32° WSW 22:48:49 10° S night (unlit)
20 Oct - 09:26:30 10° S 09:31:51 39° ESE 09:37:26 10° NE daylight
20 Oct - 11:10:32 10° WSW 11:14:18 17° WNW 11:18:10 10° NNW daylight
20 Oct - 21:57:58 10° NNW 22:02:30 80° WSW 22:06:48 10° SSE night (unlit)
21 Oct - 08:45:16 10° SSE 08:49:22 20° ESE 08:53:36 10° ENE daylight
21 Oct - 10:26:29 10° SW 10:31:42 34° WNW 10:37:09 10° N daylight
21 Oct - 21:15:43 10° N 21:19:59 40° ENE 21:24:02 10° SE night (unlit)
22 Oct - 09:43:22 10° SSW 09:49:08 68° WNW 09:55:12 10° NNE daylight
22 Oct - 20:34:25 10° NNE 20:37:26 17° ENE 20:40:20 10° ESE night (unlit)
22 Oct - 22:16:36 10° WNW 22:19:40 18° WSW 22:22:40 10° SSW night (unlit)
23 Oct - 09:00:54 10° S 09:06:38 62° ESE 09:12:37 10° NNE daylight
23 Oct - 10:48:00 10° W 10:49:10 11° WNW 10:50:20 10° WNW daylight
23 Oct - 21:32:57 10° NW 21:37:12 43° WSW 21:41:17 10° S night (unlit)
24 Oct - 08:19:04 10° S 08:24:08 31° ESE 08:29:23 10° NE daylight
24 Oct - 10:02:05 10° WSW 10:06:32 22° WNW 10:11:08 10° NNW daylight
24 Oct - 20:50:14 10° NNW 20:54:43 74° ENE 20:59:00 10° SSE night (unlit)
25 Oct - 07:38:17 10° SE 07:41:38 16° ESE 07:45:03 10° ENE daylight
25 Oct - 09:18:26 10° SW 09:23:57 43° WNW 09:29:43 10° N daylight
25 Oct - 20:08:16 10° N 20:12:12 30° ENE 20:15:58 10° SE night (unlit)
25 Oct - 21:54:00 10° WSW 21:54:23 10° WSW 21:54:48 10° WSW night (unlit)
26 Oct - 08:35:34 10° SSW 08:41:25 86° WNW 08:47:31 10° NNE daylight
26 Oct - 19:27:36 10° NE 19:29:37 13° ENE 19:31:35 10° E night (unlit)
26 Oct - 21:08:18 10° NW 21:11:54 24° WSW 21:15:24 10° SSW night (unlit)
27 Oct - 07:53:18 10° S 07:58:54 49° ESE 08:04:45 10° NE daylight
27 Oct - 09:38:23 10° W 09:41:23 14° WNW 09:44:27 10° NW daylight
27 Oct - 20:25:02 10° NNW 20:29:27 60° WSW 20:33:39 10° S night (unlit)
28 Oct - 07:11:45 10° SSE 07:16:25 25° ESE 07:21:13 10° NE daylight
28 Oct - 08:53:48 10° SW 08:58:47 28° WNW 09:03:54 10° NNW daylight
28 Oct - 19:42:34 10° N 19:46:56 53° ENE 19:51:07 10° SSE night (unlit)
